User: anonymous   Login
Location: Unspecified
(0.0000°N, 0.0000°E)
Time: 11:59:09
(UTC+02:00)
Language:

Cosmos 494 Rocket - Orbit

View from above orbital plane
View from above orbital plane
View from above satellite
View from above satellite

Ground track
Ground track

The orbit data is extracted from the following two-line orbital elements,

1 06061U 72043B   15180.31452315  .00000074  00000-0  31612-4 0  9996
2 06061 074.0575 067.7285 0019642 016.1913 343.9865 14.40377338254808
Epoch (UTC): 29 June 2015 07:32:54
Eccentricity: 0.0019642
inclination: 74.0575°
perigee height: 743 km
apogee height: 771 km
right ascension of ascending node: 67.7285°
argument of perigee: 16.1913°
revolutions per day: 14.40377338
mean anomaly at epoch: 343.9865°
orbit number at epoch: 25480

The dashed part of the orbit path shows where the satellite is in the earth's shadow,  

DLR